| time (UTC) | temp F | wind direction | speed MPH | gust MPH | rain 1hr in | rain 24hr in | rain mn in | humidity % | barometer mb |
| 20260508075320 | 47 | 48 | 0.0 | 3.0 | 0.00 | 0.03 | 0.00 | 85 | 1011.9 |
| 20260508074312 | 47 | 4 | 0.0 | 2.0 | 0.00 | 0.04 | 0.00 | 84 | 1011.7 |
| 20260508072311 | 48 | 155 | 0.0 | 0.0 | 0.00 | 0.05 | 0.00 | 82 | 1011.5 |
| 20260508070312 | 48 | 14 | 0.0 | 1.0 | 0.00 | 0.07 | 0.00 | 82 | 1010.8 |
| 20260508065312 | 48 | 33 | 0.0 | 2.0 | 0.00 | 0.09 | 0.00 | 83 | 1010.7 |
| 20260508064311 | 48 | 20 | 0.0 | 0.0 | 0.00 | 0.11 | 0.00 | 83 | 1010.3 |
| 20260508063312 | 48 | 59 | 0.0 | 2.0 | 0.00 | 0.13 | 0.00 | 84 | 1010.1 |
| 20260508062311 | 48 | 335 | 0.0 | 1.0 | 0.00 | 0.15 | 0.00 | 85 | 1010.2 |
| 20260508061311 | 48 | 20 | 0.0 | 4.0 | 0.00 | 0.16 | 0.00 | 86 | 1010.2 |
| 20260508060312 | 48 | 117 | 1.0 | 5.0 | 0.00 | 0.19 | 0.00 | 88 | 1010.4 |
| 20260508055311 | 47 | 216 | 0.0 | 2.0 | 0.00 | 0.24 | 0.00 | 93 | 1010.5 |
| 20260508054311 | 46 | 113 | 0.0 | 3.0 | 0.00 | 0.30 | 0.00 | 97 | 1010.4 |
| 20260508053311 | 45 | 223 | 0.0 | 0.0 | 0.00 | 0.32 | 0.00 | 97 | 1010.0 |
| 20260508051313 | 44 | 238 | 0.0 | 0.0 | 0.00 | 0.42 | 0.00 | 96 | 1009.6 |
| 20260508050316 | 44 | 178 | 0.0 | 0.0 | 0.00 | 0.42 | 0.00 | 96 | 1009.3 |
| 20260508045309 | 44 | 178 | 0.0 | 0.0 | 0.00 | 0.42 | 0.00 | 96 | 1009.7 |
| 20260508044310 | 44 | 178 | 0.0 | 0.0 | 0.00 | 0.42 | 0.00 | 96 | 1009.7 |
| 20260508043309 | 44 | 178 | 0.0 | 0.0 | 0.00 | 0.42 | 0.00 | 96 | 1009.7 |
| 20260508042310 | 44 | 178 | 0.0 | 0.0 | 0.00 | 0.42 | 0.00 | 96 | 1009.6 |
| 20260508041309 | 43 | 178 | 0.0 | 0.0 | 0.00 | 0.42 | 0.00 | 96 | 1009.4 |
| 20260508034309 | 43 | 172 | 0.0 | 0.0 | 0.00 | 0.42 | 0.42 | 94 | 1009.6 |
| 20260508033309 | 43 | 172 | 0.0 | 0.0 | 0.00 | 0.42 | 0.42 | 93 | 1009.4 |
| 20260508031308 | 44 | 171 | 0.0 | 0.0 | 0.00 | 0.42 | 0.42 | 94 | 1009.4 |
| 20260508030306 | 44 | 129 | 0.0 | 0.0 | 0.00 | 0.42 | 0.42 | 92 | 1009.3 |
| 20260508024305 | 44 | 129 | 0.0 | 0.0 | 0.00 | 0.42 | 0.42 | 90 | 1009.5 |
| 20260508023305 | 45 | 129 | 0.0 | 0.0 | 0.00 | 0.42 | 0.42 | 89 | 1009.6 |
| 20260508022306 | 45 | 129 | 0.0 | 0.0 | 0.00 | 0.42 | 0.42 | 89 | 1009.7 |
| 20260508021303 | 46 | 129 | 0.0 | 0.0 | 0.00 | 0.42 | 0.42 | 87 | 1009.6 |
| 20260508020302 | 46 | 129 | 0.0 | 0.0 | 0.00 | 0.42 | 0.42 | 87 | 1009.6 |
| 20260508015305 | 46 | 129 | 0.0 | 0.0 | 0.00 | 0.43 | 0.42 | 87 | 1009.5 |
| 20260508014303 | 47 | 129 | 0.0 | 0.0 | 0.00 | 0.44 | 0.42 | 82 | 1009.2 |
| 20260508012307 | 48 | 129 | 0.0 | 0.0 | 0.00 | 0.44 | 0.42 | 80 | 1009.1 |
| 20260508011303 | 49 | 129 | 0.0 | 0.0 | 0.00 | 0.44 | 0.42 | 78 | 1009.1 |
| 20260508010257 | 50 | 129 | 0.0 | 0.0 | 0.00 | 0.44 | 0.42 | 79 | 1009.1 |
| 20260508005256 | 51 | 129 | 0.0 | 0.0 | 0.00 | 0.44 | 0.42 | 75 | 1009.0 |
| 20260508004256 | 52 | 129 | 0.0 | 0.0 | 0.00 | 0.44 | 0.42 | 74 | 1008.7 |
| 20260508003256 | 53 | 129 | 0.0 | 0.0 | 0.00 | 0.44 | 0.42 | 75 | 1008.7 |
| 20260507235254 | 57 | 128 | 0.0 | 0.0 | 0.00 | 0.44 | 0.42 | 52 | 1008.3 |
| 20260507233252 | 59 | 128 | 0.0 | 0.0 | 0.00 | 0.44 | 0.42 | 49 | 1008.2 |
| 20260507232254 | 60 | 128 | 0.0 | 0.0 | 0.00 | 0.44 | 0.42 | 48 | 1008.1 |
| 20260507231252 | 62 | 150 | 0.0 | 0.0 | 0.00 | 0.44 | 0.42 | 48 | 1007.9 |
| 20260507230251 | 63 | 150 | 0.0 | 0.0 | 0.00 | 0.44 | 0.42 | 43 | 1007.9 |
| 20260507225251 | 65 | 150 | 0.0 | 0.0 | 0.00 | 0.44 | 0.42 | 43 | 1007.9 |
| 20260507224253 | 66 | 150 | 0.0 | 1.0 | 0.00 | 0.44 | 0.42 | 41 | 1008.0 |
| 20260507223251 | 65 | 72 | 0.0 | 1.0 | 0.00 | 0.44 | 0.42 | 44 | 1008.0 |
| 20260507220249 | 67 | 248 | 0.0 | 3.0 | 0.00 | 0.44 | 0.42 | 43 | 1008.0 |
| 20260507213249 | 67 | 312 | 0.0 | 5.0 | 0.00 | 0.44 | 0.42 | 43 | 1008.1 |
| 20260507212250 | 66 | 51 | 0.0 | 1.0 | 0.00 | 0.44 | 0.42 | 43 | 1007.9 |
| 20260507211248 | 66 | 122 | 0.0 | 3.0 | 0.00 | 0.44 | 0.42 | 42 | 1007.8 |
| 20260507210248 | 68 | 308 | 0.0 | 3.0 | 0.00 | 0.44 | 0.42 | 42 | 1007.7 |
| 20260507205247 | 67 | 253 | 0.0 | 3.0 | 0.00 | 0.44 | 0.42 | 42 | 1007.7 |
| 20260507204248 | 67 | 129 | 0.0 | 3.0 | 0.00 | 0.44 | 0.42 | 42 | 1007.6 |
| 20260507203248 | 67 | 47 | 0.0 | 3.0 | 0.00 | 0.44 | 0.42 | 43 | 1007.8 |
| 20260507201248 | 67 | 241 | 1.0 | 8.0 | 0.00 | 0.44 | 0.42 | 42 | 1007.8 |
| 20260507200248 | 68 | 357 | 0.0 | 3.0 | 0.00 | 0.44 | 0.42 | 40 | 1007.9 |
| 20260507195248 | 68 | 241 | 0.0 | 3.0 | 0.00 | 0.44 | 0.42 | 43 | 1008.0 |
| 20260507194248 | 67 | 98 | 1.0 | 6.0 | 0.00 | 0.44 | 0.42 | 46 | 1008.1 |
| 20260507193249 | 67 | 28 | 1.0 | 4.0 | 0.00 | 0.44 | 0.42 | 44 | 1008.3 |
| 20260507192249 | 66 | 212 | 0.0 | 3.0 | 0.00 | 0.44 | 0.42 | 49 | 1008.3 |
| 20260507191247 | 64 | 257 | 2.0 | 7.0 | 0.00 | 0.44 | 0.42 | 42 | 1008.5 |
| 20260507190248 | 65 | 262 | 2.0 | 6.0 | 0.00 | 0.44 | 0.42 | 49 | 1008.6 |
| 20260507185248 | 66 | 245 | 1.0 | 7.0 | 0.00 | 0.44 | 0.42 | 45 | 1008.7 |
| 20260507184247 | 65 | 256 | 3.0 | 7.0 | 0.00 | 0.44 | 0.42 | 47 | 1008.7 |
| 20260507183243 | 65 | 258 | 2.0 | 8.0 | 0.00 | 0.44 | 0.42 | 48 | 1008.7 |
| 20260507182244 | 66 | 231 | 1.0 | 4.0 | 0.00 | 0.44 | 0.42 | 45 | 1008.8 |
| 20260507181241 | 66 | 54 | 1.0 | 7.0 | 0.00 | 0.45 | 0.42 | 48 | 1008.8 |
| 20260507174235 | 64 | 302 | 2.0 | 9.0 | 0.00 | 0.45 | 0.42 | 49 | 1009.6 |
| 20260507173236 | 64 | 225 | 2.0 | 7.0 | 0.00 | 0.45 | 0.42 | 43 | 1009.7 |
| 20260507172234 | 65 | 252 | 1.0 | 6.0 | 0.00 | 0.45 | 0.42 | 48 | 1009.8 |
| 20260507171232 | 65 | 101 | 1.0 | 4.0 | 0.00 | 0.45 | 0.42 | 46 | 1010.1 |
| 20260507170234 | 64 | 327 | 0.0 | 4.0 | 0.00 | 0.45 | 0.42 | 47 | 1010.2 |
| 20260507165226 | 64 | 222 | 0.0 | 3.0 | 0.00 | 0.45 | 0.42 | 54 | 1010.2 |
| 20260507164225 | 64 | 105 | 0.0 | 3.0 | 0.00 | 0.46 | 0.42 | 53 | 1010.5 |
| 20260507154225 | 62 | 139 | 0.0 | 3.0 | 0.00 | 0.52 | 0.42 | 55 | 1011.1 |
| 20260507153225 | 61 | 212 | 1.0 | 5.0 | 0.00 | 0.52 | 0.42 | 56 | 1011.3 |
| 20260507152220 | 61 | 274 | 0.0 | 6.0 | 0.00 | 0.52 | 0.42 | 59 | 1011.3 |
| 20260507150220 | 59 | 315 | 1.0 | 4.0 | 0.00 | 0.52 | 0.42 | 62 | 1011.6 |
| 20260507145220 | 58 | 107 | 0.0 | 4.0 | 0.00 | 0.52 | 0.42 | 66 | 1011.6 |
| 20260507144221 | 59 | 336 | 1.0 | 4.0 | 0.00 | 0.52 | 0.42 | 67 | 1011.6 |
| 20260507143220 | 58 | 250 | 1.0 | 6.0 | 0.00 | 0.52 | 0.42 | 69 | 1011.7 |
| 20260507141220 | 56 | 162 | 1.0 | 4.0 | 0.00 | 0.52 | 0.42 | 82 | 1011.7 |
| 20260507140221 | 55 | 321 | 1.0 | 5.0 | 0.00 | 0.52 | 0.42 | 92 | 1011.7 |
| 20260507135215 | 53 | 204 | 0.0 | 4.0 | 0.00 | 0.52 | 0.42 | 96 | 1011.7 |
| 20260507134212 | 53 | 95 | 0.0 | 2.0 | 0.00 | 0.52 | 0.42 | 99 | 1011.8 |
| 20260507133217 | 52 | 206 | 0.0 | 3.0 | 0.00 | 0.52 | 0.42 | 98 | 1011.8 |
| 20260507132218 | 52 | 4 | 0.0 | 2.0 | 0.00 | 0.52 | 0.42 | 99 | 1011.8 |
| 20260507131213 | 51 | 130 | 0.0 | 2.0 | 0.00 | 0.52 | 0.42 | 100 | 1011.9 |
| 20260507125215 | 50 | 208 | 0.0 | 0.0 | 0.00 | 0.52 | 0.42 | 100 | 1012.0 |
| 20260507124211 | 50 | 254 | 0.0 | 0.0 | 0.00 | 0.52 | 0.42 | 100 | 1011.9 |
| 20260507123211 | 50 | 230 | 0.0 | 0.0 | 0.00 | 0.52 | 0.42 | 100 | 1011.9 |
| 20260507122212 | 49 | 227 | 0.0 | 0.0 | 0.00 | 0.52 | 0.42 | 100 | 1012.0 |
| 20260507121210 | 49 | 218 | 0.0 | 0.0 | 0.00 | 0.52 | 0.42 | 100 | 1012.0 |
| 20260507120211 | 49 | 271 | 0.0 | 0.0 | 0.00 | 0.52 | 0.42 | 100 | 1011.9 |
| 20260507115210 | 50 | 214 | 0.0 | 0.0 | 0.00 | 0.52 | 0.42 | 100 | 1011.8 |
| 20260507114210 | 50 | 193 | 0.0 | 0.0 | 0.00 | 0.52 | 0.42 | 100 | 1011.7 |
| 20260507113211 | 50 | 130 | 0.0 | 0.0 | 0.00 | 0.52 | 0.42 | 100 | 1011.4 |
| 20260507112211 | 49 | 130 | 0.0 | 0.0 | 0.00 | 0.52 | 0.42 | 100 | 1011.4 |
| 20260507111211 | 49 | 225 | 0.0 | 0.0 | 0.00 | 0.52 | 0.42 | 100 | 1011.1 |
| 20260507110209 | 49 | 230 | 0.0 | 0.0 | 0.00 | 0.52 | 0.42 | 100 | 1011.0 |
| 20260507104207 | 49 | 232 | 0.0 | 0.0 | 0.00 | 0.52 | 0.42 | 100 | 1010.7 |
| 20260507103206 | 49 | 231 | 0.0 | 0.0 | 0.00 | 0.52 | 0.42 | 100 | 1010.5 |
| 20260507102206 | 49 | 231 | 0.0 | 0.0 | 0.00 | 0.52 | 0.42 | 100 | 1010.4 |
| 20260507101206 | 49 | 231 | 0.0 | 0.0 | 0.00 | 0.52 | 0.42 | 100 | 1010.5 |
| 20260507100206 | 49 | 231 | 0.0 | 0.0 | 0.00 | 0.52 | 0.42 | 100 | 1010.4 |
| 20260507095206 | 49 | 231 | 0.0 | 0.0 | 0.00 | 0.52 | 0.42 | 100 | 1010.2 |
| 20260507094203 | 49 | 231 | 0.0 | 0.0 | 0.00 | 0.52 | 0.42 | 100 | 1010.2 |
| 20260507093201 | 49 | 231 | 0.0 | 0.0 | 0.00 | 0.52 | 0.42 | 100 | 1010.1 |
| 20260507092200 | 49 | 231 | 0.0 | 0.0 | 0.01 | 0.52 | 0.42 | 100 | 1009.9 |
| 20260507091200 | 49 | 231 | 0.0 | 0.0 | 0.01 | 0.52 | 0.42 | 100 | 1010.3 |
| 20260507090201 | 49 | 231 | 0.0 | 0.0 | 0.02 | 0.52 | 0.42 | 99 | 1010.2 |
| 20260507084202 | 49 | 231 | 0.0 | 0.0 | 0.04 | 0.52 | 0.42 | 99 | 1010.1 |
| 20260507083158 | 49 | 231 | 0.0 | 0.0 | 0.04 | 0.52 | 0.42 | 99 | 1010.3 |
| 20260507082200 | 49 | 231 | 0.0 | 0.0 | 0.05 | 0.51 | 0.42 | 99 | 1010.4 |
| 20260507081158 | 49 | 204 | 0.0 | 0.0 | 0.05 | 0.51 | 0.41 | 98 | 1010.6 |